{"data":{"norad_id":56009,"epoch":"2026-05-24T23:00:46.635840Z","epoch_age_seconds":78309,"freshness":"FRESH","line1":"1 56009U 23042Z   26144.95887310 -.00000457  00000+0 -70575-5 0  9995","line2":"2 56009  43.0058 352.3045 0001700 267.1098  92.9559 15.27577485174490","mean_motion":15.27577485,"eccentricity":0.00017,"inclination_deg":43.0058,"raan_deg":352.3045,"arg_perigee_deg":267.1098,"mean_anomaly_deg":92.9559,"bstar":-7.0575e-6,"rev_number":17449,"period_min":94.266903914206,"perigee_km":481.89022394818,"apogee_km":484.22302978132,"semimajor_km":6861.1936268648,"source":"CELESTRAK","updated_at":"2026-05-25T13:38:17.926101Z"}}